Flag for Myanmar Weather past 2 weeks in Mandalay, Myanmar

Now
81 °F

Partly cloudy.


Feels Like: 86 °F
Forecast: 79 / 94 °F
Wind: 5 mph from Southeast

Location: Chittagong Patenga

Current Time: Jul 1, 2015 at 3:00:23 AM

Latest Report: Jul 1, 2015 at 12:20 AM


Visibility: 4 mi

Pressure: 29.71 "Hg

Humidity: 84%

Dew point: 75 °F

Location of MandalayLocation

Historic Weather in Mandalay — Graph

°F

Mandalay temperature yesterday

Maximum temperature yesterday: 90 °F (at 11:20 AM)
Minimum temperature yesterday: 79 °F (at 6:20 AM)
Average temperature yesterday: 86 °F

Past Weeks' High & Low Weather Summary

 TemperatureHumidityPressure
High95 °F (Jun 19, 12:20 PM)100% (Jun 24, 7:20 AM)29.80 "Hg (Jun 24, 7:20 AM)
Low77 °F (Jun 27, 9:20 PM)49% (Jun 20, 12:20 PM)29.30 "Hg (Jun 25, 5:20 PM)
Average84 °F82%29.56 "Hg
* Reported Jun 16 12:20 AM — Jul 1 12:20 AM, Mandalay, Weather by CustomWeather, © 2015

Note: Actual official high and low records may vary slightly from our data, if they occured in-between our weather recording intervals... More about our weather records

Advertising

Mandalay weather history for previous 24 hours

 ConditionsComfort  
Time TempWeatherWind HumidityBarometerVisibility
12:20 AM
Wed, Jul 1
81 °FPartly cloudy.5 mph84%29.71 "Hg4 mi
11:20 PM
Tue, Jun 30
82 °FPassing clouds.6 mph84%29.71 "Hg4 mi
10:20 PM82 °FPassing clouds.6 mph84%29.71 "Hg4 mi
9:20 PM82 °FPassing clouds.6 mph84%29.71 "Hg4 mi
8:20 PM84 °FPassing clouds.12 mph79%29.68 "Hg4 mi
6:20 PM86 °FBroken clouds.14 mph75%29.65 "Hg4 mi
5:20 PM88 °FScattered clouds.12 mph66%29.65 "Hg4 mi
4:20 PM88 °FScattered clouds.14 mph66%29.65 "Hg4 mi
3:20 PM88 °FBroken clouds.9 mph66%29.65 "Hg4 mi
2:20 PM88 °FRain. Broken clouds.9 mph66%29.68 "Hg4 mi
1:20 PM90 °FScattered clouds.9 mph63%29.68 "Hg4 mi
12:20 PM90 °FScattered clouds.9 mph63%29.71 "Hg4 mi
11:20 AM90 °FBroken clouds.12 mph63%29.74 "Hg4 mi
10:20 AM88 °FBroken clouds.12 mph66%29.74 "Hg4 mi
9:20 AM88 °FScattered clouds.12 mph66%29.74 "Hg4 mi
8:20 AM82 °FBroken clouds.3 mph79%29.71 "Hg3 mi
7:20 AM81 °FScattered clouds.No wind84%29.71 "Hg3 mi
6:20 AM79 °FScattered clouds.8 mph89%29.71 "Hg3 mi
Weather by CustomWeather, © 2015

See weather overviewHow to use our weather pages